Accueil
METAR-TAF:

METAR-TAF

Aéroports :

Aéroport d'Épinal-Mirecourt

Épinal, France

latitude: 48-19-31N, longitude: 6-04-00E, altitude: 330 m

Observation

Le bulletin a été fait il y a 1 heure et 27 minutes, à 03:30 UTC
Vent 5 kt de nord
Température 13°C
Humidité 82%
Pression 1025 hPa
Visibilité 10 km ou plus
pas de nuages en-dessous de 1500 mètres et pas de cumulonimbus.

METAR: LFSG 060330Z AUTO 36005KT CAVOK 13/10 Q1025

Heure: 06:57 (04:57 UTC)


TAF: absent

Observations et prévisions météorologiques de plus de 4000 aéroports (messages METAR et TAF).

Les stations disponibles sont représentées par des disques jaunes et rouges sur la carte.

Passer la souris dessus pour voir le nom de la station.

Cliquer dessus pour voir les observations et prévisions météorologiques.

Pour changer de carte: cliquez sur les boutons verts avec une croix noire pour zoomer, sur le bouton vert avec un tiret pour effectuer un zoom arrière, ou sur les flèches vertes pour les cartes adjacentes.


METAR-TAF: